This is the latest recevied weather packets stored in our database for station/object K7LDN-13. If no packets are shown the sender has not sent any weather packets the latest 10 day(s).
| Time | Temp. | Humidity | Pressure | Rain* | Wind** | Luminosity | Snow |
|---|---|---|---|---|---|---|---|
| 1777874068 | 13.89° C | 35% | 1012.7 hPa | 0 mm | - | 0 W/m² | - |
| 1777873766 | 13.89° C | 36% | 1012.7 hPa | 0 mm | - | 0 W/m² | - |
| 1777873462 | 14.44° C | 35% | 1012.7 hPa | 0 mm | - | 0 W/m² | - |
| 1777873159 | 14.44° C | 34% | 1012.5 hPa | 0 mm | - | 0 W/m² | - |
| 1777872855 | 14.44° C | 35% | 1012.4 hPa | 0 mm | - | 0 W/m² | - |
| 1777872554 | 14.44° C | 34% | 1012.7 hPa | 0 mm | - | 0 W/m² | - |
| 1777872250 | 15° C | 33% | 1012.7 hPa | 0 mm | - | 0 W/m² | - |
| 1777871948 | 15° C | 33% | 1012.4 hPa | 0 mm | - | 0 W/m² | - |
| 1777871644 | 15° C | 33% | 1012.7 hPa | 0 mm | - | 0 W/m² | - |
| 1777871341 | 15° C | 33% | 1012.6 hPa | 0 mm | - | 0 W/m² | - |
| 1777871038 | 15.56° C | 33% | 1012.8 hPa | 0 mm | - | 0 W/m² | - |
| 1777870735 | 15.56° C | 33% | 1012.7 hPa | 0 mm | - | 0 W/m² | - |
| 1777870430 | 15.56° C | 32% | 1013 hPa | 0 mm | - | 0 W/m² | - |
| 1777870127 | 16.11° C | 31% | 1012.8 hPa | 0 mm | - | 0 W/m² | - |
| 1777869825 | 16.11° C | 30% | 1013 hPa | 0 mm | - | 0 W/m² | - |
| 1777869522 | 16.67° C | 30% | 1012.7 hPa | 0 mm | - | 0 W/m² | - |
| 1777869219 | 16.11° C | 30% | 1013 hPa | 0 mm | - | 0 W/m² | - |
| 1777868916 | 16.11° C | 30% | 1013.1 hPa | 0 mm | - | 0 W/m² | - |
| 1777868612 | 16.67° C | 30% | 1013.1 hPa | 0 mm | - | 0 W/m² | - |
| 1777868309 | 16.67° C | 29% | 1013.2 hPa | 0 mm | - | 0 W/m² | - |
| 1777868005 | 17.22° C | 28% | 1013 hPa | 0 mm | - | 0 W/m² | - |
| 1777867701 | 17.78° C | 27% | 1012.8 hPa | 0 mm | - | 0 W/m² | - |
| 1777867399 | 17.78° C | 27% | 1013.1 hPa | 0 mm | - | 0 W/m² | - |
| 1777867095 | 17.78° C | 27% | 1013 hPa | 0 mm | - | 0 W/m² | - |
| 1777866792 | 18.33° C | 26% | 1012.8 hPa | 0 mm | - | 0 W/m² | - |
* Rain latest hour (hover to see other rain measurements)
** Current wind speed in m/s (hover to see current wind gust speed)